• In India
  • List of Countries
  • For 7 days
  • Water Temperature
  • Satellite Maps
  • Weather Map
  • Weather Widgets
  • user-avatar
    Login

    Hourly Weather Olbiecin

    Today, 13 November, Tuesday

    Time Temperature Precipitation Wind Pressure Humidity
    00:00 +7°C° 0 mm 4 mps 751 mmHg 79%
    01:00 +8°C° 0 mm 3 mps 751 mmHg 86%
    02:00 +7°C° 0 mm 3 mps 751 mmHg 86%
    03:00 +6°C° 0 mm 4 mps 751 mmHg 86%
    04:00 +6°C° 0 mm 4 mps 751 mmHg 86%
    05:00 +6°C° 0 mm 4 mps 751 mmHg 87%
    06:00 +6°C° 0 mm 4 mps 751 mmHg 87%
    07:00 +6°C° 0 mm 4 mps 751 mmHg 87%
    08:00 +7°C° 0 mm 4 mps 751 mmHg 81%
    09:00 +8°C° 0 mm 4 mps 751 mmHg 76%
    10:00 +11°C° 0 mm 4 mps 751 mmHg 70%
    11:00 +12°C° 0 mm 4 mps 750 mmHg 66%
    12:00 +13°C° 0 mm 4 mps 750 mmHg 63%
    13:00 +14°C° 0 mm 4 mps 750 mmHg 60%
    14:00 +13°C° 0 mm 3 mps 749 mmHg 63%
    15:00 +12°C° 0 mm 3 mps 749 mmHg 67%
    16:00 +11°C° 0 mm 3 mps 749 mmHg 70%
    17:00 +11°C° 0 mm 3 mps 749 mmHg 71%
    18:00 +10°C° 0 mm 3 mps 749 mmHg 72%
    19:00 +10°C° 0 mm 3 mps 749 mmHg 73%
    20:00 +10°C° 0.2 mm 4 mps 749 mmHg 76%
    21:00 +10°C° 0.2 mm 4 mps 749 mmHg 79%
    22:00 +11°C° 0.2 mm 4 mps 749 mmHg 82%
    23:00 +10°C° 0.7 mm 4 mps 750 mmHg 83%

    Tomorrow, 14 November, Wednesday

    Time Temperature Precipitation Wind Pressure Humidity
    00:00 +10°C° 0.7 mm 4 mps 750 mmHg 85%
    01:00 +10°C° 0.7 mm 4 mps 750 mmHg 86%
    02:00 +8°C° 0 mm 5 mps 750 mmHg 87%
    03:00 +8°C° 0 mm 5 mps 750 mmHg 87%
    04:00 +7°C° 0 mm 5 mps 750 mmHg 88%
    05:00 +7°C° 0 mm 5 mps 750 mmHg 86%
    06:00 +7°C° 0 mm 5 mps 751 mmHg 85%
    07:00 +7°C° 0 mm 5 mps 751 mmHg 83%
    08:00 +7°C° 0.1 mm 5 mps 751 mmHg 82%
    09:00 +7°C° 0.1 mm 5 mps 751 mmHg 80%
    10:00 +7°C° 0.1 mm 5 mps 751 mmHg 79%
    11:00 +8°C° 0 mm 5 mps 751 mmHg 76%
    12:00 +8°C° 0 mm 5 mps 752 mmHg 74%
    13:00 +8°C° 0 mm 6 mps 752 mmHg 72%
    14:00 +8°C° 0.1 mm 5 mps 752 mmHg 75%
    15:00 +8°C° 0.1 mm 5 mps 752 mmHg 77%
    16:00 +7°C° 0.1 mm 5 mps 752 mmHg 80%
    17:00 +7°C° 0.1 mm 5 mps 752 mmHg 81%
    18:00 +7°C° 0.1 mm 4 mps 752 mmHg 82%
    19:00 +7°C° 0.1 mm 4 mps 752 mmHg 84%
    20:00 +7°C° 0.1 mm 4 mps 753 mmHg 85%
    21:00 +7°C° 0.1 mm 4 mps 753 mmHg 86%
    22:00 +7°C° 0.1 mm 4 mps 753 mmHg 87%
    23:00 +7°C° 0.1 mm 4 mps 753 mmHg 88%

    Day after tomorrow, 15 November, Thursday

    Time Temperature Precipitation Wind Pressure Humidity
    00:00 +7°C° 0.1 mm 4 mps 753 mmHg 88%
    01:00 +6°C° 0.1 mm 4 mps 753 mmHg 89%
    02:00 +6°C° 0 mm 4 mps 753 mmHg 90%
    03:00 +6°C° 0 mm 4 mps 753 mmHg 90%
    04:00 +6°C° 0 mm 4 mps 753 mmHg 91%
    05:00 +6°C° 0 mm 4 mps 754 mmHg 91%
    06:00 +6°C° 0 mm 4 mps 754 mmHg 91%
    07:00 +5°C° 0 mm 3 mps 754 mmHg 91%
    08:00 +7°C° 0 mm 3 mps 754 mmHg 89%
    09:00 +7°C° 0 mm 3 mps 755 mmHg 87%
    10:00 +7°C° 0 mm 3 mps 755 mmHg 85%
    11:00 +7°C° 0 mm 3 mps 755 mmHg 82%
    12:00 +7°C° 0 mm 3 mps 755 mmHg 79%
    13:00 +8°C° 0 mm 3 mps 755 mmHg 77%
    14:00 +7°C° 0 mm 3 mps 755 mmHg 77%
    15:00 +7°C° 0 mm 3 mps 755 mmHg 77%
    16:00 +7°C° 0 mm 2 mps 756 mmHg 77%
    17:00 +7°C° 0 mm 2 mps 756 mmHg 78%
    18:00 +6°C° 0 mm 2 mps 756 mmHg 79%
    19:00 +6°C° 0 mm 2 mps 756 mmHg 80%
    20:00 +5°C° 0 mm 2 mps 757 mmHg 83%
    21:00 +4°C° 0 mm 2 mps 757 mmHg 85%
    22:00 +4°C° 0 mm 2 mps 757 mmHg 88%
    23:00 +3°C° 0 mm 2 mps 757 mmHg 89%

    16 November, Friday

    Time Temperature Precipitation Wind Pressure Humidity
    00:00 +3°C° 0 mm 2 mps 758 mmHg 90%
    01:00 +3°C° 0 mm 2 mps 758 mmHg 90%
    02:00 +3°C° 0 mm 2 mps 758 mmHg 91%
    03:00 +2°C° 0 mm 2 mps 758 mmHg 91%
    04:00 +2°C° 0 mm 2 mps 758 mmHg 91%
    05:00 +2°C° 0 mm 2 mps 759 mmHg 91%
    06:00 +2°C° 0 mm 2 mps 759 mmHg 91%
    07:00 +2°C° 0 mm 2 mps 759 mmHg 91%
    08:00 +3°C° 0 mm 2 mps 759 mmHg 86%
    09:00 +4°C° 0 mm 2 mps 760 mmHg 82%
    10:00 +4°C° 0 mm 3 mps 760 mmHg 77%
    11:00 +4°C° 0 mm 3 mps 760 mmHg 75%
    12:00 +5°C° 0 mm 3 mps 760 mmHg 72%
    13:00 +5°C° 0 mm 3 mps 760 mmHg 70%
    14:00 +6°C° 0 mm 2 mps 760 mmHg 72%
    15:00 +5°C° 0 mm 2 mps 760 mmHg 74%
    16:00 +5°C° 0 mm 2 mps 760 mmHg 76%
    17:00 +4°C° 0 mm 3 mps 760 mmHg 78%
    18:00 +3°C° 0 mm 3 mps 760 mmHg 79%
    19:00 +3°C° 0 mm 3 mps 760 mmHg 81%
    20:00 +3°C° 0 mm 3 mps 760 mmHg 84%
    21:00 +2°C° 0 mm 3 mps 760 mmHg 86%
    22:00 +3°C° 0 mm 2 mps 760 mmHg 88%
    23:00 +2°C° 0 mm 2 mps 761 mmHg 89%

    17 November, Saturday

    Time Temperature Precipitation Wind Pressure Humidity
    00:00 +2°C° 0 mm 2 mps 761 mmHg 91%
    01:00 +2°C° 0 mm 2 mps 761 mmHg 92%
    02:00 +1°C° 0 mm 2 mps 761 mmHg 92%
    03:00 +1°C° 0 mm 2 mps 761 mmHg 93%
    04:00 +1°C° 0 mm 2 mps 761 mmHg 93%
    05:00 -1°C° 0 mm 2 mps 761 mmHg 92%
    06:00 -1°C° 0 mm 2 mps 761 mmHg 91%
    07:00 -1°C° 0 mm 2 mps 761 mmHg 91%
    08:00 +1°C° 0 mm 2 mps 761 mmHg 82%
    09:00 +2°C° 0 mm 2 mps 761 mmHg 74%
    10:00 +3°C° 0 mm 2 mps 761 mmHg 65%
    11:00 +4°C° 0 mm 2 mps 761 mmHg 60%
    12:00 +4°C° 0 mm 2 mps 761 mmHg 55%
    13:00 +5°C° 0 mm 2 mps 760 mmHg 49%
    14:00 +4°C° 0 mm 2 mps 760 mmHg 53%
    15:00 +3°C° 0 mm 2 mps 760 mmHg 57%
    16:00 +3°C° 0 mm 2 mps 760 mmHg 61%
    17:00 +3°C° 0 mm 1 mps 760 mmHg 63%
    18:00 +3°C° 0 mm 1 mps 759 mmHg 66%
    19:00 +2°C° 0 mm 1 mps 759 mmHg 69%
    20:00 +2°C° 0 mm 1 mps 759 mmHg 69%
    21:00 +1°C° 0 mm 0 mps 759 mmHg 70%
    22:00 0°C° 0 mm 0 mps 758 mmHg 71%
    23:00 0°C° 0 mm 0 mps 758 mmHg 70%

    18 November, Sunday

    Time Temperature Precipitation Wind Pressure Humidity
    00:00 +1°C° 0 mm 1 mps 758 mmHg 70%
    01:00 +1°C° 0 mm 1 mps 757 mmHg 70%
    02:00 +1°C° 0 mm 1 mps 757 mmHg 71%
    03:00 -1°C° 0 mm 2 mps 756 mmHg 72%
    04:00 -1°C° 0 mm 2 mps 755 mmHg 72%
    05:00 +1°C° 0 mm 2 mps 755 mmHg 74%
    06:00 +1°C° 0 mm 2 mps 754 mmHg 75%
    07:00 0°C° 0 mm 3 mps 754 mmHg 76%
    08:00 +1°C° 0 mm 3 mps 753 mmHg 75%
    09:00 +1°C° 0 mm 4 mps 753 mmHg 74%
    10:00 +1°C° 0 mm 4 mps 752 mmHg 73%
    11:00 +1°C° 0.2 mm 4 mps 751 mmHg 76%
    12:00 +3°C° 0.2 mm 4 mps 751 mmHg 80%
    13:00 +3°C° 0.2 mm 4 mps 750 mmHg 83%
    14:00 +3°C° 0.1 mm 4 mps 750 mmHg 84%
    15:00 +3°C° 0.1 mm 4 mps 750 mmHg 85%
    16:00 +3°C° 0.1 mm 4 mps 749 mmHg 86%
    17:00 +1°C° 0.1 mm 4 mps 749 mmHg 85%
    18:00 +1°C° 0.1 mm 4 mps 749 mmHg 83%
    19:00 +1°C° 0.1 mm 4 mps 749 mmHg 82%
    20:00 +1°C° 0 mm 4 mps 748 mmHg 83%
    21:00 +1°C° 0 mm 4 mps 748 mmHg 84%
    22:00 +1°C° 0 mm 3 mps 748 mmHg 85%
    23:00 +1°C° 0.1 mm 4 mps 748 mmHg 86%
    Show more